owner,sensor,date,latitude,longitude,air_pressure(mBar),qcFlag 
COMPS,ioos:station:USF.COMPS:SHP:1,2019-05-10T15:54:00,30.0600,-84.2910,1016.41,11111222 
COMPS,ioos:station:USF.COMPS:SHP:1,2019-05-10T16:54:00,30.0600,-84.2910,1016.56,11111222 
COMPS,ioos:station:USF.COMPS:SHP:1,2019-05-10T17:54:00,30.0600,-84.2910,1016.36,11111222 
COMPS,ioos:station:USF.COMPS:SHP:1,2019-05-10T18:54:00,30.0600,-84.2910,1015.66,11111222 
COMPS,ioos:station:USF.COMPS:SHP:1,2019-05-10T19:54:00,30.0600,-84.2910,1015.12,11111222 
COMPS,ioos:station:USF.COMPS:SHP:1,2019-05-10T20:54:00,30.0600,-84.2910,1015.01,11111222 
COMPS,ioos:station:USF.COMPS:SHP:1,2019-05-10T21:54:00,30.0600,-84.2910,1014.54,11111222 
COMPS,ioos:station:USF.COMPS:SHP:1,2019-05-10T22:54:00,30.0600,-84.2910,1014.48,11111222 
COMPS,ioos:station:USF.COMPS:SHP:1,2019-05-10T23:54:00,30.0600,-84.2910,1014.45,11111222 
COMPS,ioos:station:USF.COMPS:SHP:1,2019-05-11T00:54:00,30.0600,-84.2910,1014.9,11111222 
COMPS,ioos:station:USF.COMPS:SHP:1,2019-05-11T01:54:00,30.0600,-84.2910,1015.41,11111222 
COMPS,ioos:station:USF.COMPS:SHP:1,2019-05-11T02:54:00,30.0600,-84.2910,1015.58,11111222 
COMPS,ioos:station:USF.COMPS:SHP:1,2019-05-11T03:54:00,30.0600,-84.2910,1015.36,11111222 
COMPS,ioos:station:USF.COMPS:SHP:1,2019-05-11T04:54:00,30.0600,-84.2910,1015.44,11111222 
COMPS,ioos:station:USF.COMPS:SHP:1,2019-05-11T05:54:00,30.0600,-84.2910,1014.78,11111222 
COMPS,ioos:station:USF.COMPS:SHP:1,2019-05-11T06:54:00,30.0600,-84.2910,1014.46,11111222 
COMPS,ioos:station:USF.COMPS:SHP:1,2019-05-11T07:54:00,30.0600,-84.2910,1013.96,11111222 
COMPS,ioos:station:USF.COMPS:SHP:1,2019-05-11T08:54:00,30.0600,-84.2910,1013.49,11111222 
COMPS,ioos:station:USF.COMPS:SHP:1,2019-05-11T09:54:00,30.0600,-84.2910,1013.01,11111222 
COMPS,ioos:station:USF.COMPS:SHP:1,2019-05-11T10:54:00,30.0600,-84.2910,1013.04,11111222 
COMPS,ioos:station:USF.COMPS:SHP:1,2019-05-11T11:54:00,30.0600,-84.2910,1013.42,11111222 
COMPS,ioos:station:USF.COMPS:SHP:1,2019-05-13T12:54:00,30.0600,-84.2910,1010.36,11111222 
COMPS,ioos:station:USF.COMPS:SHP:1,2019-05-13T13:54:00,30.0600,-84.2910,1010.6,11111222 
COMPS,ioos:station:USF.COMPS:SHP:1,2019-05-13T14:54:00,30.0600,-84.2910,1011.41,11111222 
COMPS,ioos:station:USF.COMPS:SHP:1,2019-05-13T15:54:00,30.0600,-84.2910,1010.46,11111222 
COMPS,ioos:station:USF.COMPS:SHP:1,2019-05-13T16:54:00,30.0600,-84.2910,1009.81,11111222 
COMPS,ioos:station:USF.COMPS:SHP:1,2019-05-13T17:54:00,30.0600,-84.2910,1010.09,11111222 
COMPS,ioos:station:USF.COMPS:SHP:1,2019-05-13T18:54:00,30.0600,-84.2910,1009.21,11111222 
COMPS,ioos:station:USF.COMPS:SHP:1,2019-05-13T19:54:00,30.0600,-84.2910,1008.62,11111222 
COMPS,ioos:station:USF.COMPS:SHP:1,2019-05-13T20:54:00,30.0600,-84.2910,1008.42,11111222 
COMPS,ioos:station:USF.COMPS:SHP:1,2019-05-13T21:54:00,30.0600,-84.2910,1008.62,11111222 
COMPS,ioos:station:USF.COMPS:SHP:1,2019-05-13T22:54:00,30.0600,-84.2910,1008.96,11111222 
COMPS,ioos:station:USF.COMPS:SHP:1,2019-05-13T23:54:00,30.0600,-84.2910,1009.48,11111222 
COMPS,ioos:station:USF.COMPS:SHP:1,2019-05-14T00:54:00,30.0600,-84.2910,1010.05,11111222 
COMPS,ioos:station:USF.COMPS:SHP:1,2019-05-14T01:54:00,30.0600,-84.2910,1010.54,11111222 
COMPS,ioos:station:USF.COMPS:SHP:1,2019-05-14T02:54:00,30.0600,-84.2910,1011.45,11111222 
COMPS,ioos:station:USF.COMPS:SHP:1,2019-05-14T03:54:00,30.0600,-84.2910,1011.89,11111222 
COMPS,ioos:station:USF.COMPS:SHP:1,2019-05-14T04:54:00,30.0600,-84.2910,1012.16,11111222 
COMPS,ioos:station:USF.COMPS:SHP:1,2019-05-14T05:54:00,30.0600,-84.2910,1011.97,11111222 
COMPS,ioos:station:USF.COMPS:SHP:1,2019-05-14T06:54:00,30.0600,-84.2910,1011.29,11111222 
COMPS,ioos:station:USF.COMPS:SHP:1,2019-05-14T07:54:00,30.0600,-84.2910,1011.77,11111222 
COMPS,ioos:station:USF.COMPS:SHP:1,2019-05-14T08:54:00,30.0600,-84.2910,1012.08,11111222 
COMPS,ioos:station:USF.COMPS:SHP:1,2019-05-14T09:54:00,30.0600,-84.2910,1012.38,11111222 
COMPS,ioos:station:USF.COMPS:SHP:1,2019-05-14T10:54:00,30.0600,-84.2910,1012.8,11111222 
COMPS,ioos:station:USF.COMPS:SHP:1,2019-05-14T11:54:00,30.0600,-84.2910,1013.96,11111222 
COMPS,ioos:station:USF.COMPS:SHP:1,2019-05-14T12:54:00,30.0600,-84.2910,1014.49,11111222 
COMPS,ioos:station:USF.COMPS:SHP:1,2019-05-14T13:54:00,30.0600,-84.2910,1014.81,11111222 
COMPS,ioos:station:USF.COMPS:SHP:1,2019-05-14T14:54:00,30.0600,-84.2910,1015.16,11111222 
COMPS,ioos:station:USF.COMPS:SHP:1,2019-05-14T15:54:00,30.0600,-84.2910,1014.89,11111222 
COMPS,ioos:station:USF.COMPS:SHP:1,2019-05-14T16:54:00,30.0600,-84.2910,1014.42,11111222 
COMPS,ioos:station:USF.COMPS:SHP:1,2019-05-14T17:54:00,30.0600,-84.2910,1013.53,11111222 
COMPS,ioos:station:USF.COMPS:SHP:1,2019-05-14T18:54:00,30.0600,-84.2910,1013.25,11111222 
COMPS,ioos:station:USF.COMPS:SHP:1,2019-05-14T19:54:00,30.0600,-84.2910,1012.54,11111222 
COMPS,ioos:station:USF.COMPS:SHP:1,2019-05-14T20:54:00,30.0600,-84.2910,1011.69,11111222 
COMPS,ioos:station:USF.COMPS:SHP:1,2019-05-14T21:54:00,30.0600,-84.2910,1011.92,11111222 
COMPS,ioos:station:USF.COMPS:SHP:1,2019-05-14T22:54:00,30.0600,-84.2910,1012.5,11111222 
COMPS,ioos:station:USF.COMPS:SHP:1,2019-05-14T23:54:00,30.0600,-84.2910,1013.09,11111222 
COMPS,ioos:station:USF.COMPS:SHP:1,2019-05-15T00:54:00,30.0600,-84.2910,1013.57,11111222 
COMPS,ioos:station:USF.COMPS:SHP:1,2019-05-15T01:54:00,30.0600,-84.2910,1013.86,11111222 
COMPS,ioos:station:USF.COMPS:SHP:1,2019-05-15T02:54:00,30.0600,-84.2910,1014.21,11111222 
COMPS,ioos:station:USF.COMPS:SHP:1,2019-05-15T03:54:00,30.0600,-84.2910,1013.84,11111222 
COMPS,ioos:station:USF.COMPS:SHP:1,2019-05-15T04:54:00,30.0600,-84.2910,1013.69,11111222 
COMPS,ioos:station:USF.COMPS:SHP:1,2019-05-15T05:54:00,30.0600,-84.2910,1013.73,11111222 
COMPS,ioos:station:USF.COMPS:SHP:1,2019-05-15T06:54:00,30.0600,-84.2910,1013.5,11111222 
COMPS,ioos:station:USF.COMPS:SHP:1,2019-05-15T07:54:00,30.0600,-84.2910,1013.57,11111222 
COMPS,ioos:station:USF.COMPS:SHP:1,2019-05-15T08:54:00,30.0600,-84.2910,1013.57,11111222 
COMPS,ioos:station:USF.COMPS:SHP:1,2019-05-15T09:54:00,30.0600,-84.2910,1013.81,11111222 
COMPS,ioos:station:USF.COMPS:SHP:1,2019-05-15T10:54:00,30.0600,-84.2910,1014.18,11111222 
COMPS,ioos:station:USF.COMPS:SHP:1,2019-05-15T11:54:00,30.0600,-84.2910,1015.44,11111222 
COMPS,ioos:station:USF.COMPS:SHP:1,2019-05-15T12:54:00,30.0600,-84.2910,1015.98,11111222 
COMPS,ioos:station:USF.COMPS:SHP:1,2019-05-15T13:54:00,30.0600,-84.2910,1016.34,11111222 
COMPS,ioos:station:USF.COMPS:SHP:1,2019-05-15T14:54:00,30.0600,-84.2910,1016.08,11111222 
COMPS,ioos:station:USF.COMPS:SHP:1,2019-05-15T15:54:00,30.0600,-84.2910,1015.82,11111222 
COMPS,ioos:station:USF.COMPS:SHP:1,2019-05-15T16:54:00,30.0600,-84.2910,1015.32,11111222 
COMPS,ioos:station:USF.COMPS:SHP:1,2019-05-15T17:54:00,30.0600,-84.2910,1015.04,11111222 
COMPS,ioos:station:USF.COMPS:SHP:1,2019-05-15T18:54:00,30.0600,-84.2910,1014.25,11111222 
COMPS,ioos:station:USF.COMPS:SHP:1,2019-05-15T19:54:00,30.0600,-84.2910,1013.64,11111222 
COMPS,ioos:station:USF.COMPS:SHP:1,2019-05-15T20:54:00,30.0600,-84.2910,1013.17,11111222 
COMPS,ioos:station:USF.COMPS:SHP:1,2019-05-15T21:54:00,30.0600,-84.2910,1013.34,11111222 
COMPS,ioos:station:USF.COMPS:SHP:1,2019-05-15T22:54:00,30.0600,-84.2910,1013.57,11111222 
COMPS,ioos:station:USF.COMPS:SHP:1,2019-05-15T23:54:00,30.0600,-84.2910,1014.12,11111222 
COMPS,ioos:station:USF.COMPS:SHP:1,2019-05-16T00:54:00,30.0600,-84.2910,1014.5,11111222 
COMPS,ioos:station:USF.COMPS:SHP:1,2019-05-16T01:54:00,30.0600,-84.2910,1014.73,11111222 
COMPS,ioos:station:USF.COMPS:SHP:1,2019-05-16T02:54:00,30.0600,-84.2910,1014.93,11111222 
COMPS,ioos:station:USF.COMPS:SHP:1,2019-05-16T03:54:00,30.0600,-84.2910,1015.16,11111222 
COMPS,ioos:station:USF.COMPS:SHP:1,2019-05-16T04:54:00,30.0600,-84.2910,1015.33,11111222 
COMPS,ioos:station:USF.COMPS:SHP:1,2019-05-16T05:54:00,30.0600,-84.2910,1015.05,11111222 
COMPS,ioos:station:USF.COMPS:SHP:1,2019-05-16T06:54:00,30.0600,-84.2910,1014.86,11111222 
COMPS,ioos:station:USF.COMPS:SHP:1,2019-05-16T07:54:00,30.0600,-84.2910,1014.73,11111222 
COMPS,ioos:station:USF.COMPS:SHP:1,2019-05-16T08:54:00,30.0600,-84.2910,1014.9,11111222 
COMPS,ioos:station:USF.COMPS:SHP:1,2019-05-16T09:54:00,30.0600,-84.2910,1015.41,11111222 
COMPS,ioos:station:USF.COMPS:SHP:1,2019-05-16T10:54:00,30.0600,-84.2910,1015.92,11111222 
COMPS,ioos:station:USF.COMPS:SHP:1,2019-05-16T11:54:00,30.0600,-84.2910,1016.68,11111222 
COMPS,ioos:station:USF.COMPS:SHP:1,2019-05-16T12:54:00,30.0600,-84.2910,1016.88,11111222 
COMPS,ioos:station:USF.COMPS:SHP:1,2019-05-16T13:54:00,30.0600,-84.2910,1017.02,11111222 
COMPS,ioos:station:USF.COMPS:SHP:1,2019-05-16T14:54:00,30.0600,-84.2910,1017.24,11111222 
COMPS,ioos:station:USF.COMPS:SHP:1,2019-05-16T15:54:00,30.0600,-84.2910,1017.28,11111222 
COMPS,ioos:station:USF.COMPS:SHP:1,2019-05-16T16:54:00,30.0600,-84.2910,1016.86,11111222 
COMPS,ioos:station:USF.COMPS:SHP:1,2019-05-16T17:54:00,30.0600,-84.2910,1016.08,11111222 
COMPS,ioos:station:USF.COMPS:SHP:1,2019-05-16T18:54:00,30.0600,-84.2910,1015.69,11111222 
COMPS,ioos:station:USF.COMPS:SHP:1,2019-05-16T19:54:00,30.0600,-84.2910,1014.82,11111222 
COMPS,ioos:station:USF.COMPS:SHP:1,2019-05-16T20:54:00,30.0600,-84.2910,1014.09,11111222 
COMPS,ioos:station:USF.COMPS:SHP:1,2019-05-16T21:54:00,30.0600,-84.2910,1013.76,11111222 
COMPS,ioos:station:USF.COMPS:SHP:1,2019-05-16T22:54:00,30.0600,-84.2910,1013.81,11111222 
COMPS,ioos:station:USF.COMPS:SHP:1,2019-05-16T23:54:00,30.0600,-84.2910,1014.05,11111222 
COMPS,ioos:station:USF.COMPS:SHP:1,2019-05-17T00:54:00,30.0600,-84.2910,1014.57,11111222 
COMPS,ioos:station:USF.COMPS:SHP:1,2019-05-17T01:54:00,30.0600,-84.2910,1014.72,11111222 
COMPS,ioos:station:USF.COMPS:SHP:1,2019-05-17T02:54:00,30.0600,-84.2910,1015.18,11111222 
COMPS,ioos:station:USF.COMPS:SHP:1,2019-05-17T03:54:00,30.0600,-84.2910,1015.54,11111222 
COMPS,ioos:station:USF.COMPS:SHP:1,2019-05-17T04:54:00,30.0600,-84.2910,1015.34,11111222 
COMPS,ioos:station:USF.COMPS:SHP:1,2019-05-17T05:54:00,30.0600,-84.2910,1015.24,11111222 
COMPS,ioos:station:USF.COMPS:SHP:1,2019-05-17T06:54:00,30.0600,-84.2910,1014.72,11111222 
COMPS,ioos:station:USF.COMPS:SHP:1,2019-05-17T07:54:00,30.0600,-84.2910,1014.53,11111222 
COMPS,ioos:station:USF.COMPS:SHP:1,2019-05-17T08:54:00,30.0600,-84.2910,1014.41,11111222 
COMPS,ioos:station:USF.COMPS:SHP:1,2019-05-17T09:54:00,30.0600,-84.2910,1014.57,11111222 
COMPS,ioos:station:USF.COMPS:SHP:1,2019-05-17T10:54:00,30.0600,-84.2910,1015.48,11111222 
COMPS,ioos:station:USF.COMPS:SHP:1,2019-05-17T11:54:00,30.0600,-84.2910,1015.93,11111222 
COMPS,ioos:station:USF.COMPS:SHP:1,2019-05-17T12:54:00,30.0600,-84.2910,1016.77,11111222 
COMPS,ioos:station:USF.COMPS:SHP:1,2019-05-17T13:54:00,30.0600,-84.2910,1016.85,11111222 
COMPS,ioos:station:USF.COMPS:SHP:1,2019-05-17T14:54:00,30.0600,-84.2910,1016.94,11111222 
COMPS,ioos:station:USF.COMPS:SHP:1,2019-05-17T15:54:00,30.0600,-84.2910,1017.18,11111222 
COMPS,ioos:station:USF.COMPS:SHP:1,2019-05-17T16:54:00,30.0600,-84.2910,1016.53,11111222 
COMPS,ioos:station:USF.COMPS:SHP:1,2019-05-17T17:54:00,30.0600,-84.2910,1015.76,11111222 
COMPS,ioos:station:USF.COMPS:SHP:1,2019-05-17T18:54:00,30.0600,-84.2910,1014.98,11111222 
COMPS,ioos:station:USF.COMPS:SHP:1,2019-05-17T19:54:00,30.0600,-84.2910,1014.41,11111222 
COMPS,ioos:station:USF.COMPS:SHP:1,2019-05-17T20:54:00,30.0600,-84.2910,1014.18,11111222 
COMPS,ioos:station:USF.COMPS:SHP:1,2019-05-17T21:54:00,30.0600,-84.2910,1013.8,11111222 
COMPS,ioos:station:USF.COMPS:SHP:1,2019-05-17T22:54:00,30.0600,-84.2910,1014.06,11111222 
COMPS,ioos:station:USF.COMPS:SHP:1,2019-05-17T23:54:00,30.0600,-84.2910,1014.16,11111222 
COMPS,ioos:station:USF.COMPS:SHP:1,2019-05-18T00:54:00,30.0600,-84.2910,1014.52,11111222 
COMPS,ioos:station:USF.COMPS:SHP:1,2019-05-18T01:54:00,30.0600,-84.2910,1014.76,11111222 
COMPS,ioos:station:USF.COMPS:SHP:1,2019-05-18T02:54:00,30.0600,-84.2910,1015.4,11111222 
COMPS,ioos:station:USF.COMPS:SHP:1,2019-05-18T03:54:00,30.0600,-84.2910,1015.65,11111222 
COMPS,ioos:station:USF.COMPS:SHP:1,2019-05-18T04:54:00,30.0600,-84.2910,1015.4,11111222 
COMPS,ioos:station:USF.COMPS:SHP:1,2019-05-18T05:54:00,30.0600,-84.2910,1015.09,11111222 
COMPS,ioos:station:USF.COMPS:SHP:1,2019-05-18T06:54:00,30.0600,-84.2910,1015.14,11111222 
COMPS,ioos:station:USF.COMPS:SHP:1,2019-05-18T07:54:00,30.0600,-84.2910,1014.89,11111222 
COMPS,ioos:station:USF.COMPS:SHP:1,2019-05-18T08:54:00,30.0600,-84.2910,1014.54,11111222 
COMPS,ioos:station:USF.COMPS:SHP:1,2019-05-18T09:54:00,30.0600,-84.2910,1015.12,11111222 
COMPS,ioos:station:USF.COMPS:SHP:1,2019-05-18T10:54:00,30.0600,-84.2910,1015.57,11111222 
COMPS,ioos:station:USF.COMPS:SHP:1,2019-05-18T11:54:00,30.0600,-84.2910,1016.22,11111222 
COMPS,ioos:station:USF.COMPS:SHP:1,2019-05-18T12:54:00,30.0600,-84.2910,1016.53,11111222 
COMPS,ioos:station:USF.COMPS:SHP:1,2019-05-18T13:54:00,30.0600,-84.2910,1016.86,11111222 
COMPS,ioos:station:USF.COMPS:SHP:1,2019-05-18T14:54:00,30.0600,-84.2910,1017.02,11111222 
COMPS,ioos:station:USF.COMPS:SHP:1,2019-05-18T15:54:00,30.0600,-84.2910,1016.72,11111222 
COMPS,ioos:station:USF.COMPS:SHP:1,2019-05-18T16:54:00,30.0600,-84.2910,1016.16,11111222 
COMPS,ioos:station:USF.COMPS:SHP:1,2019-05-18T17:54:00,30.0600,-84.2910,1015.73,11111222 
COMPS,ioos:station:USF.COMPS:SHP:1,2019-05-18T18:54:00,30.0600,-84.2910,1015.1,11111222 
COMPS,ioos:station:USF.COMPS:SHP:1,2019-05-18T19:54:00,30.0600,-84.2910,1014.26,11111222 
COMPS,ioos:station:USF.COMPS:SHP:1,2019-05-18T20:54:00,30.0600,-84.2910,1013.68,11111222 
COMPS,ioos:station:USF.COMPS:SHP:1,2019-05-18T21:54:00,30.0600,-84.2910,1013.52,11111222 
COMPS,ioos:station:USF.COMPS:SHP:1,2019-05-18T22:54:00,30.0600,-84.2910,1013.33,11111222 
COMPS,ioos:station:USF.COMPS:SHP:1,2019-05-18T23:54:00,30.0600,-84.2910,1013.26,11111222 
COMPS,ioos:station:USF.COMPS:SHP:1,2019-05-19T00:54:00,30.0600,-84.2910,1013.84,11111222 
COMPS,ioos:station:USF.COMPS:SHP:1,2019-05-19T01:54:00,30.0600,-84.2910,1014.14,11111222 
COMPS,ioos:station:USF.COMPS:SHP:1,2019-05-19T02:54:00,30.0600,-84.2910,1014.78,11111222 
COMPS,ioos:station:USF.COMPS:SHP:1,2019-05-19T03:54:00,30.0600,-84.2910,1014.77,11111222 
COMPS,ioos:station:USF.COMPS:SHP:1,2019-05-19T04:54:00,30.0600,-84.2910,1015.0,11111222 
COMPS,ioos:station:USF.COMPS:SHP:1,2019-05-19T05:54:00,30.0600,-84.2910,1014.56,11111222 
COMPS,ioos:station:USF.COMPS:SHP:1,2019-05-19T06:54:00,30.0600,-84.2910,1014.29,11111222 
COMPS,ioos:station:USF.COMPS:SHP:1,2019-05-19T07:54:00,30.0600,-84.2910,1014.52,11111222 
COMPS,ioos:station:USF.COMPS:SHP:1,2019-05-19T08:54:00,30.0600,-84.2910,1014.78,11111222 
COMPS,ioos:station:USF.COMPS:SHP:1,2019-05-19T09:54:00,30.0600,-84.2910,1014.38,11111222 
COMPS,ioos:station:USF.COMPS:SHP:1,2019-05-19T10:54:00,30.0600,-84.2910,1014.57,11111222 
COMPS,ioos:station:USF.COMPS:SHP:1,2019-05-19T11:54:00,30.0600,-84.2910,1015.24,11111222 
COMPS,ioos:station:USF.COMPS:SHP:1,2019-05-19T12:54:00,30.0600,-84.2910,1016.08,11111222 
COMPS,ioos:station:USF.COMPS:SHP:1,2019-05-19T13:54:00,30.0600,-84.2910,1016.4,11111222 
COMPS,ioos:station:USF.COMPS:SHP:1,2019-05-19T14:54:00,30.0600,-84.2910,1016.53,11111222 
COMPS,ioos:station:USF.COMPS:SHP:1,2019-05-19T15:54:00,30.0600,-84.2910,1016.88,11111222 
COMPS,ioos:station:USF.COMPS:SHP:1,2019-05-19T16:54:00,30.0600,-84.2910,1016.52,11111222 
COMPS,ioos:station:USF.COMPS:SHP:1,2019-05-19T17:54:00,30.0600,-84.2910,1016.09,11111222 
COMPS,ioos:station:USF.COMPS:SHP:1,2019-05-19T18:54:00,30.0600,-84.2910,1015.74,11111222 
COMPS,ioos:station:USF.COMPS:SHP:1,2019-05-19T19:54:00,30.0600,-84.2910,1014.89,11111222 
COMPS,ioos:station:USF.COMPS:SHP:1,2019-05-19T20:54:00,30.0600,-84.2910,1014.6,11111222 
COMPS,ioos:station:USF.COMPS:SHP:1,2019-05-19T21:54:00,30.0600,-84.2910,1014.13,11111222 
COMPS,ioos:station:USF.COMPS:SHP:1,2019-05-19T22:54:00,30.0600,-84.2910,1014.02,11111222 
COMPS,ioos:station:USF.COMPS:SHP:1,2019-05-19T23:54:00,30.0600,-84.2910,1014.26,11111222 
COMPS,ioos:station:USF.COMPS:SHP:1,2019-05-20T00:54:00,30.0600,-84.2910,1014.78,11111222 
COMPS,ioos:station:USF.COMPS:SHP:1,2019-05-20T01:54:00,30.0600,-84.2910,1015.1,11111222 
COMPS,ioos:station:USF.COMPS:SHP:1,2019-05-20T02:54:00,30.0600,-84.2910,1015.21,11111222 
COMPS,ioos:station:USF.COMPS:SHP:1,2019-05-20T03:54:00,30.0600,-84.2910,1014.89,11111222 
COMPS,ioos:station:USF.COMPS:SHP:1,2019-05-20T04:54:00,30.0600,-84.2910,1015.22,11111222 
COMPS,ioos:station:USF.COMPS:SHP:1,2019-05-20T05:54:00,30.0600,-84.2910,1015.26,11111222 
COMPS,ioos:station:USF.COMPS:SHP:1,2019-05-20T06:54:00,30.0600,-84.2910,1015.3,11111222 
COMPS,ioos:station:USF.COMPS:SHP:1,2019-05-20T07:54:00,30.0600,-84.2910,1015.17,11111222 
COMPS,ioos:station:USF.COMPS:SHP:1,2019-05-20T08:54:00,30.0600,-84.2910,1015.48,11111222 
COMPS,ioos:station:USF.COMPS:SHP:1,2019-05-20T09:54:00,30.0600,-84.2910,1015.74,11111222 
COMPS,ioos:station:USF.COMPS:SHP:1,2019-05-20T10:54:00,30.0600,-84.2910,1016.16,11111222 
COMPS,ioos:station:USF.COMPS:SHP:1,2019-05-20T11:54:00,30.0600,-84.2910,1016.81,11111222 
COMPS,ioos:station:USF.COMPS:SHP:1,2019-05-20T12:54:00,30.0600,-84.2910,1016.84,11111222 
COMPS,ioos:station:USF.COMPS:SHP:1,2019-05-20T13:54:00,30.0600,-84.2910,1016.78,11111222 
COMPS,ioos:station:USF.COMPS:SHP:1,2019-05-20T14:54:00,30.0600,-84.2910,1017.04,11111222 
COMPS,ioos:station:USF.COMPS:SHP:1,2019-05-20T15:54:00,30.0600,-84.2910,1016.9,11111222 
COMPS,ioos:station:USF.COMPS:SHP:1,2019-05-20T16:54:00,30.0600,-84.2910,1016.37,11111222 
COMPS,ioos:station:USF.COMPS:SHP:1,2019-05-20T17:54:00,30.0600,-84.2910,1015.84,11111222 
COMPS,ioos:station:USF.COMPS:SHP:1,2019-05-20T18:54:00,30.0600,-84.2910,1014.96,11111222 
COMPS,ioos:station:USF.COMPS:SHP:1,2019-05-20T19:54:00,30.0600,-84.2910,1014.08,11111222 
COMPS,ioos:station:USF.COMPS:SHP:1,2019-05-20T20:54:00,30.0600,-84.2910,1013.5,11111222 
COMPS,ioos:station:USF.COMPS:SHP:1,2019-05-20T21:54:00,30.0600,-84.2910,1013.25,11111222 
COMPS,ioos:station:USF.COMPS:SHP:1,2019-05-20T22:54:00,30.0600,-84.2910,1012.9,11111222 
COMPS,ioos:station:USF.COMPS:SHP:1,2019-05-20T23:54:00,30.0600,-84.2910,1012.85,11111222 
COMPS,ioos:station:USF.COMPS:SHP:1,2019-05-21T00:54:00,30.0600,-84.2910,1013.1,11111222 
COMPS,ioos:station:USF.COMPS:SHP:1,2019-05-21T01:54:00,30.0600,-84.2910,1013.52,11111222 
COMPS,ioos:station:USF.COMPS:SHP:1,2019-05-21T02:54:00,30.0600,-84.2910,1013.76,11111222 
COMPS,ioos:station:USF.COMPS:SHP:1,2019-05-21T03:54:00,30.0600,-84.2910,1013.25,11111222 
COMPS,ioos:station:USF.COMPS:SHP:1,2019-05-21T04:54:00,30.0600,-84.2910,1012.69,11111222 
COMPS,ioos:station:USF.COMPS:SHP:1,2019-05-21T05:54:00,30.0600,-84.2910,1012.33,11111222 
COMPS,ioos:station:USF.COMPS:SHP:1,2019-05-21T06:54:00,30.0600,-84.2910,1012.5,11111222 
COMPS,ioos:station:USF.COMPS:SHP:1,2019-05-21T07:54:00,30.0600,-84.2910,1012.45,11111222 
COMPS,ioos:station:USF.COMPS:SHP:1,2019-05-21T08:54:00,30.0600,-84.2910,1012.38,11111222 
COMPS,ioos:station:USF.COMPS:SHP:1,2019-05-21T09:54:00,30.0600,-84.2910,1012.68,11111222 
COMPS,ioos:station:USF.COMPS:SHP:1,2019-05-21T10:54:00,30.0600,-84.2910,1013.29,11111222 
COMPS,ioos:station:USF.COMPS:SHP:1,2019-05-21T11:54:00,30.0600,-84.2910,1013.8,11111222 
COMPS,ioos:station:USF.COMPS:SHP:1,2019-05-21T12:54:00,30.0600,-84.2910,1013.8,11111222 
COMPS,ioos:station:USF.COMPS:SHP:1,2019-05-21T13:54:00,30.0600,-84.2910,1013.94,11111222 
COMPS,ioos:station:USF.COMPS:SHP:1,2019-05-21T14:54:00,30.0600,-84.2910,1014.06,11111222 
COMPS,ioos:station:USF.COMPS:SHP:1,2019-05-21T15:54:00,30.0600,-84.2910,1013.76,11111222 
COMPS,ioos:station:USF.COMPS:SHP:1,2019-05-21T16:54:00,30.0600,-84.2910,1013.85,11111222 
COMPS,ioos:station:USF.COMPS:SHP:1,2019-05-21T17:54:00,30.0600,-84.2910,1013.38,11111222 
COMPS,ioos:station:USF.COMPS:SHP:1,2019-05-21T18:54:00,30.0600,-84.2910,1012.76,11111222 
COMPS,ioos:station:USF.COMPS:SHP:1,2019-05-21T19:54:00,30.0600,-84.2910,1012.32,11111222 
COMPS,ioos:station:USF.COMPS:SHP:1,2019-05-21T20:54:00,30.0600,-84.2910,1012.08,11111222 
COMPS,ioos:station:USF.COMPS:SHP:1,2019-05-21T21:54:00,30.0600,-84.2910,1012.04,11111222 
COMPS,ioos:station:USF.COMPS:SHP:1,2019-05-21T22:54:00,30.0600,-84.2910,1011.72,11111222 
COMPS,ioos:station:USF.COMPS:SHP:1,2019-05-21T23:54:00,30.0600,-84.2910,1011.88,11111222 
COMPS,ioos:station:USF.COMPS:SHP:1,2019-05-22T00:54:00,30.0600,-84.2910,1012.16,11111222 
COMPS,ioos:station:USF.COMPS:SHP:1,2019-05-22T01:54:00,30.0600,-84.2910,1012.97,11111222 
COMPS,ioos:station:USF.COMPS:SHP:1,2019-05-22T02:54:00,30.0600,-84.2910,1013.56,11111222 
COMPS,ioos:station:USF.COMPS:SHP:1,2019-05-22T03:54:00,30.0600,-84.2910,1013.72,11111222 
COMPS,ioos:station:USF.COMPS:SHP:1,2019-05-22T04:54:00,30.0600,-84.2910,1014.06,11111222 
COMPS,ioos:station:USF.COMPS:SHP:1,2019-05-22T05:54:00,30.0600,-84.2910,1014.04,11111222 
COMPS,ioos:station:USF.COMPS:SHP:1,2019-05-22T06:54:00,30.0600,-84.2910,1013.92,11111222 
COMPS,ioos:station:USF.COMPS:SHP:1,2019-05-22T07:54:00,30.0600,-84.2910,1014.09,11111222 
COMPS,ioos:station:USF.COMPS:SHP:1,2019-05-22T08:54:00,30.0600,-84.2910,1014.66,11111222 
COMPS,ioos:station:USF.COMPS:SHP:1,2019-05-22T09:54:00,30.0600,-84.2910,1015.09,11111222 
COMPS,ioos:station:USF.COMPS:SHP:1,2019-05-22T10:54:00,30.0600,-84.2910,1015.88,11111222 
COMPS,ioos:station:USF.COMPS:SHP:1,2019-05-22T11:54:00,30.0600,-84.2910,1016.62,11111222 
COMPS,ioos:station:USF.COMPS:SHP:1,2019-05-22T12:54:00,30.0600,-84.2910,1016.8,11111222 
COMPS,ioos:station:USF.COMPS:SHP:1,2019-05-22T13:54:00,30.0600,-84.2910,1016.94,11111222 
COMPS,ioos:station:USF.COMPS:SHP:1,2019-05-22T14:54:00,30.0600,-84.2910,1017.12,11111222 
COMPS,ioos:station:USF.COMPS:SHP:1,2019-05-22T15:54:00,30.0600,-84.2910,1017.52,11111222 
COMPS,ioos:station:USF.COMPS:SHP:1,2019-05-22T16:54:00,30.0600,-84.2910,1017.62,11111222 
COMPS,ioos:station:USF.COMPS:SHP:1,2019-05-22T17:54:00,30.0600,-84.2910,1017.18,11111222 
COMPS,ioos:station:USF.COMPS:SHP:1,2019-05-22T18:54:00,30.0600,-84.2910,1016.92,11111222 
COMPS,ioos:station:USF.COMPS:SHP:1,2019-05-22T19:54:00,30.0600,-84.2910,1016.7,11111222 
COMPS,ioos:station:USF.COMPS:SHP:1,2019-05-22T20:54:00,30.0600,-84.2910,1016.33,11111222 
COMPS,ioos:station:USF.COMPS:SHP:1,2019-05-22T21:54:00,30.0600,-84.2910,1016.36,11111222 
COMPS,ioos:station:USF.COMPS:SHP:1,2019-05-22T22:54:00,30.0600,-84.2910,1016.29,11111222 
COMPS,ioos:station:USF.COMPS:SHP:1,2019-05-22T23:54:00,30.0600,-84.2910,1016.37,11111222 
COMPS,ioos:station:USF.COMPS:SHP:1,2019-05-23T00:54:00,30.0600,-84.2910,1016.88,11111222 
COMPS,ioos:station:USF.COMPS:SHP:1,2019-05-23T01:54:00,30.0600,-84.2910,1017.54,11111222 
COMPS,ioos:station:USF.COMPS:SHP:1,2019-05-23T02:54:00,30.0600,-84.2910,1018.36,11111222 
COMPS,ioos:station:USF.COMPS:SHP:1,2019-05-23T03:54:00,30.0600,-84.2910,1019.02,11111222 
COMPS,ioos:station:USF.COMPS:SHP:1,2019-05-23T05:54:00,30.0600,-84.2910,1019.48,11111222 
COMPS,ioos:station:USF.COMPS:SHP:1,2019-05-23T06:54:00,30.0600,-84.2910,1019.12,11111222 
COMPS,ioos:station:USF.COMPS:SHP:1,2019-05-23T07:54:00,30.0600,-84.2910,1019.01,11111222 
COMPS,ioos:station:USF.COMPS:SHP:1,2019-05-23T08:54:00,30.0600,-84.2910,1019.34,11111222 
COMPS,ioos:station:USF.COMPS:SHP:1,2019-05-23T09:54:00,30.0600,-84.2910,1019.62,11111222 
COMPS,ioos:station:USF.COMPS:SHP:1,2019-05-23T10:54:00,30.0600,-84.2910,1020.25,11111222 
COMPS,ioos:station:USF.COMPS:SHP:1,2019-05-23T11:54:00,30.0600,-84.2910,1020.89,11111222 
COMPS,ioos:station:USF.COMPS:SHP:1,2019-05-23T12:54:00,30.0600,-84.2910,1021.26,11111222 
COMPS,ioos:station:USF.COMPS:SHP:1,2019-05-23T13:54:00,30.0600,-84.2910,1021.89,11111222 
COMPS,ioos:station:USF.COMPS:SHP:1,2019-05-23T14:54:00,30.0600,-84.2910,1021.92,11111222 
COMPS,ioos:station:USF.COMPS:SHP:1,2019-05-23T15:54:00,30.0600,-84.2910,1022.13,11111222 
COMPS,ioos:station:USF.COMPS:SHP:1,2019-05-23T16:54:00,30.0600,-84.2910,1022.01,11111222 
COMPS,ioos:station:USF.COMPS:SHP:1,2019-05-23T17:54:00,30.0600,-84.2910,1021.2,11111222 